TimeAKDT,TemperatureF,Dew PointF,Humidity,Sea Level PressureIn,VisibilityMPH,Wind Direction,Wind SpeedMPH,Gust SpeedMPH,PrecipitationIn,Events,Conditions,WindDirDegrees,DateUTC
12:16 AM,48.2,44.6,87,30.15,9.0,Calm,Calm,-,N/A,,Scattered Clouds,0,2013-07-19 08:16:00
12:36 AM,48.2,44.6,87,30.16,7.0,Calm,Calm,-,N/A,,Mostly Cloudy,0,2013-07-19 08:36:00
12:56 AM,48.2,46.4,93,30.16,10.0,South,3.5,-,N/A,,Mostly Cloudy,190,2013-07-19 08:56:00
1:16 AM,48.2,46.4,93,30.17,10.0,South,3.5,-,N/A,,Overcast,190,2013-07-19 09:16:00
1:36 AM,48.2,46.4,93,30.17,10.0,SSW,5.8,-,N/A,,Overcast,200,2013-07-19 09:36:00
1:56 AM,48.2,46.4,93,30.17,10.0,SSW,5.8,-,N/A,,Overcast,210,2013-07-19 09:56:00
2:16 AM,50.0,46.4,87,30.17,10.0,SW,4.6,-,N/A,,Overcast,220,2013-07-19 10:16:00
2:36 AM,50.0,46.4,87,30.17,10.0,SW,4.6,-,0.01,,Overcast,230,2013-07-19 10:36:00
2:56 AM,48.2,46.4,93,30.17,10.0,SW,4.6,-,0.01,,Overcast,230,2013-07-19 10:56:00
3:16 AM,48.2,46.4,93,30.17,10.0,West,4.6,-,N/A,,Overcast,260,2013-07-19 11:16:00
3:36 AM,48.2,46.4,93,30.16,10.0,West,5.8,-,N/A,,Overcast,270,2013-07-19 11:36:00
3:56 AM,48.2,46.4,93,30.16,10.0,West,5.8,-,N/A,,Overcast,270,2013-07-19 11:56:00
4:16 AM,48.2,46.4,93,30.16,10.0,West,5.8,-,N/A,,Overcast,280,2013-07-19 12:16:00
4:36 AM,48.2,46.4,93,30.15,10.0,West,5.8,-,N/A,,Overcast,270,2013-07-19 12:36:00
4:56 AM,48.2,46.4,93,30.15,10.0,West,4.6,-,N/A,,Overcast,270,2013-07-19 12:56:00
5:16 AM,48.2,46.4,93,30.15,10.0,West,6.9,-,N/A,,Mostly Cloudy,270,2013-07-19 13:16:00
5:36 AM,48.2,46.4,93,30.16,10.0,West,9.2,-,N/A,,Mostly Cloudy,270,2013-07-19 13:36:00
5:56 AM,48.2,44.6,87,30.16,10.0,West,5.8,-,N/A,,Mostly Cloudy,260,2013-07-19 13:56:00
6:16 AM,48.2,46.4,93,30.16,10.0,West,6.9,-,N/A,,Overcast,270,2013-07-19 14:16:00
6:36 AM,48.2,44.6,87,30.16,10.0,West,6.9,-,N/A,,Overcast,260,2013-07-19 14:36:00
6:56 AM,48.2,46.4,93,30.16,10.0,WSW,6.9,-,N/A,,Overcast,250,2013-07-19 14:56:00
7:16 AM,48.2,46.4,93,30.16,10.0,West,5.8,-,N/A,,Overcast,260,2013-07-19 15:16:00
7:36 AM,48.2,46.4,93,30.17,10.0,West,6.9,-,N/A,,Overcast,260,2013-07-19 15:36:00
7:56 AM,48.2,46.4,93,30.17,10.0,WSW,5.8,-,N/A,,Overcast,250,2013-07-19 15:56:00
8:16 AM,48.2,46.4,93,30.17,10.0,West,6.9,-,N/A,,Overcast,260,2013-07-19 16:16:00
8:36 AM,48.2,46.4,93,30.17,10.0,WSW,6.9,-,N/A,,Overcast,250,2013-07-19 16:36:00
8:56 AM,48.2,46.4,93,30.17,10.0,WSW,5.8,-,N/A,,Overcast,240,2013-07-19 16:56:00
9:16 AM,48.2,46.4,93,30.17,10.0,WSW,8.1,-,N/A,,Overcast,250,2013-07-19 17:16:00
9:36 AM,48.2,46.4,93,30.18,5.0,West,9.2,-,0.01,,Overcast,260,2013-07-19 17:36:00
9:56 AM,48.2,46.4,93,30.18,6.0,West,5.8,-,0.02,,Overcast,260,2013-07-19 17:56:00
10:16 AM,48.2,46.4,93,30.18,9.0,WSW,5.8,-,0.01,,Mostly Cloudy,250,2013-07-19 18:16:00
10:36 AM,48.2,46.4,93,30.18,10.0,WSW,6.9,-,0.02,,Overcast,250,2013-07-19 18:36:00
10:56 AM,48.2,46.4,93,30.18,10.0,WSW,6.9,-,0.02,,Overcast,240,2013-07-19 18:56:00
11:16 AM,48.2,46.4,93,30.18,10.0,WSW,6.9,-,N/A,,Overcast,250,2013-07-19 19:16:00
11:36 AM,48.2,46.4,93,30.18,10.0,West,6.9,-,N/A,,Overcast,270,2013-07-19 19:36:00
11:56 AM,48.2,46.4,93,30.19,9.0,West,5.8,-,N/A,,Overcast,260,2013-07-19 19:56:00
12:16 PM,48.2,46.4,93,30.19,10.0,West,6.9,-,N/A,,Overcast,270,2013-07-19 20:16:00
12:36 PM,48.2,46.4,93,30.19,10.0,West,8.1,-,N/A,,Overcast,270,2013-07-19 20:36:00
12:56 PM,48.2,46.4,93,30.18,10.0,West,9.2,-,N/A,,Overcast,270,2013-07-19 20:56:00
1:16 PM,48.2,46.4,93,30.18,10.0,West,8.1,-,N/A,,Overcast,280,2013-07-19 21:16:00
1:36 PM,48.2,46.4,93,30.18,10.0,West,8.1,-,N/A,,Overcast,280,2013-07-19 21:36:00
1:56 PM,48.2,46.4,93,30.18,10.0,West,8.1,-,N/A,,Overcast,270,2013-07-19 21:56:00
2:16 PM,48.2,46.4,93,30.18,10.0,West,6.9,-,N/A,,Overcast,270,2013-07-19 22:16:00
2:36 PM,48.2,46.4,93,30.18,10.0,West,8.1,-,N/A,,Overcast,270,2013-07-19 22:36:00
2:56 PM,48.2,46.4,93,30.18,10.0,West,6.9,-,N/A,,Overcast,270,2013-07-19 22:56:00
3:16 PM,48.2,46.4,93,30.18,5.0,West,8.1,-,N/A,,Overcast,270,2013-07-19 23:16:00
3:36 PM,48.2,46.4,93,30.19,2.0,West,9.2,-,N/A,,Overcast,270,2013-07-19 23:36:00
3:56 PM,48.2,46.4,93,30.18,6.0,West,10.4,-,N/A,,Overcast,270,2013-07-19 23:56:00
4:16 PM,48.2,46.4,93,30.18,6.0,West,9.2,-,N/A,,Overcast,260,2013-07-20 00:16:00
4:36 PM,48.2,46.4,93,30.18,10.0,West,9.2,-,N/A,,Overcast,260,2013-07-20 00:36:00
4:56 PM,48.2,46.4,93,30.18,10.0,West,9.2,-,N/A,,Overcast,260,2013-07-20 00:56:00
5:16 PM,50.0,46.4,87,30.18,10.0,West,10.4,-,N/A,,Overcast,270,2013-07-20 01:16:00
5:36 PM,50.0,46.4,87,30.18,10.0,West,10.4,-,N/A,,Overcast,260,2013-07-20 01:36:00
5:56 PM,50.0,46.4,87,30.18,10.0,West,9.2,-,N/A,,Overcast,260,2013-07-20 01:56:00
6:16 PM,50.0,46.4,87,30.18,10.0,West,9.2,-,N/A,,Overcast,260,2013-07-20 02:16:00
6:36 PM,50.0,46.4,87,30.17,10.0,West,9.2,-,N/A,,Overcast,260,2013-07-20 02:36:00
6:56 PM,50.0,46.4,87,30.17,10.0,West,10.4,-,N/A,,Overcast,270,2013-07-20 02:56:00
7:16 PM,50.0,46.4,87,30.17,10.0,West,10.4,-,N/A,,Overcast,270,2013-07-20 03:16:00
7:36 PM,50.0,46.4,87,30.17,10.0,West,10.4,-,N/A,,Overcast,270,2013-07-20 03:36:00
7:56 PM,50.0,46.4,87,30.17,10.0,West,10.4,-,N/A,,Overcast,270,2013-07-20 03:56:00
8:16 PM,50.0,46.4,87,30.17,10.0,West,10.4,-,N/A,,Overcast,260,2013-07-20 04:16:00
8:36 PM,50.0,46.4,87,30.18,10.0,West,9.2,-,N/A,,Overcast,260,2013-07-20 04:36:00
8:56 PM,50.0,46.4,87,30.18,10.0,West,9.2,-,N/A,,Overcast,260,2013-07-20 04:56:00
9:16 PM,50.0,46.4,87,30.18,10.0,West,9.2,-,N/A,,Overcast,260,2013-07-20 05:16:00
9:36 PM,50.0,46.4,87,30.18,10.0,WSW,10.4,-,N/A,,Overcast,250,2013-07-20 05:36:00
9:56 PM,50.0,46.4,87,30.18,10.0,WSW,9.2,-,N/A,,Overcast,250,2013-07-20 05:56:00
10:16 PM,50.0,46.4,87,30.18,10.0,West,10.4,-,N/A,,Overcast,260,2013-07-20 06:16:00
10:36 PM,50.0,46.4,87,30.18,10.0,West,9.2,-,N/A,,Overcast,260,2013-07-20 06:36:00
10:56 PM,50.0,46.4,87,30.18,10.0,West,10.4,-,N/A,,Overcast,260,2013-07-20 06:56:00
11:16 PM,50.0,46.4,87,30.18,10.0,West,10.4,-,N/A,,Overcast,260,2013-07-20 07:16:00
11:36 PM,50.0,46.4,87,30.18,10.0,WSW,9.2,-,N/A,,Overcast,250,2013-07-20 07:36:00
11:56 PM,50.0,46.4,87,30.18,10.0,West,9.2,-,N/A,,Overcast,260,2013-07-20 07:56:00